Weather in Prokhladnyy

Russia / Krasnodar Krai     44°42′52″N   40°41′56″E
temp.,
°C
wind,
m/s
gust,
m/s
humid.,
%
clouds,
%
prec.,
mm/h
press.,
hPa
HPBL,
m
24 september, fri
fri2400:00+11nw3498100 2.6 1012223
03:00+11nw2498100 5.1 1012240
06:00+11wnw1297100 1.0 1013147
09:00+12w3490100 1.2 1014396
12:00+15w5665100 0.2 10141057
15:00+17wnw684840 0.2 10131698
18:00+13wnw22655 0.0 101425
21:00+10ssw227623 0.0 101525
25 september, sat
sat2500:00+10sse3680100 0.0 1013114
03:00+11s3572100 0.0 1012115
06:00+11se3464100 0.0 101196
09:00+11wnw2376100 1.6 1011134
12:00+11ssw598197 11.9 1014451
15:00+14wsw71173100 12.5 10141092
18:00+12w61281100 1.1 1016588
21:00+10wsw512865 1.1 1019375
26 september, sun
sun2600:00+9wsw512865 0.0 1020340
03:00+10wsw41284100 0.0 1021343
06:00+11wsw5138296 0.0 1021510
09:00+14w71369100 0.0 10201159
12:00+16w71364100 0.0 10191375
15:00+16w7146597 0.0 1018917
18:00+16wsw71663100 0.0 1018702
21:00+15wsw6166698 0.0 1017604
27 september, mon
mon2700:00+14w61668100 0.0 1017677
03:00+15w91679100 0.3 1016857
06:00+14wnw51191100 0.6 1017690
09:00+13nw487766 0.9 1017628
12:00+17nw696184 0.0 10171394
15:00+17wnw685398 0.0 10171566
18:00+15nnw355798 0.0 1017195
21:00+13ene225853 0.0 101966
28 september, tue
tue2800:00+10ene22675 0.0 101927
03:00+9e226953 0.0 101927
06:00+8e337294 0.0 102055
09:00+13e45550 0.0 1020508
12:00+17ene44460 0.0 10201372
15:00+18ene45410 0.0 10201636
18:00+14ene48560 0.0 1020154
21:00+11e410650 0.0 1022199